TimeCST,TemperatureF,Dew PointF,Humidity,Sea Level PressureIn,VisibilityMPH,Wind Direction,Wind SpeedMPH,Gust SpeedMPH,PrecipitationIn,Events,Conditions,WindDirDegrees,DateUTC
12:15 AM,48.2,41.0,76,30.25,10.0,East,20.7,-,N/A,,Overcast,100,2014-02-07 06:15:00
12:35 AM,48.2,41.0,76,30.25,10.0,East,20.7,-,N/A,,Overcast,100,2014-02-07 06:35:00
12:55 AM,48.2,41.0,76,30.24,10.0,East,20.7,-,N/A,,Mostly Cloudy,100,2014-02-07 06:55:00
1:15 AM,48.2,41.0,76,30.24,10.0,East,21.9,-,N/A,,Mostly Cloudy,100,2014-02-07 07:15:00
1:35 AM,48.2,41.0,76,30.23,10.0,ESE,20.7,-,N/A,,Overcast,110,2014-02-07 07:35:00
1:55 AM,48.2,41.0,76,30.23,10.0,ESE,21.9,-,N/A,,Overcast,110,2014-02-07 07:55:00
2:15 AM,48.2,41.0,76,30.24,10.0,ESE,20.7,-,N/A,,Overcast,110,2014-02-07 08:15:00
2:35 AM,48.2,41.0,76,30.24,10.0,East,20.7,-,N/A,,Overcast,100,2014-02-07 08:35:00
2:55 AM,48.2,41.0,76,30.24,10.0,East,20.7,-,N/A,,Overcast,100,2014-02-07 08:55:00
3:15 AM,48.2,41.0,76,30.24,10.0,East,20.7,-,N/A,,Overcast,90,2014-02-07 09:15:00
3:35 AM,48.2,41.0,76,30.25,10.0,East,19.6,-,N/A,,Overcast,100,2014-02-07 09:35:00
3:55 AM,48.2,42.8,82,30.25,10.0,East,18.4,24.2,N/A,,Overcast,90,2014-02-07 09:55:00
4:15 AM,48.2,42.8,82,30.26,10.0,East,16.1,24.2,N/A,,Overcast,80,2014-02-07 10:15:00
4:35 AM,48.2,41.0,76,30.24,10.0,East,21.9,-,N/A,,Overcast,80,2014-02-07 10:35:00
4:55 AM,48.2,42.8,82,30.23,10.0,East,23.0,-,N/A,,Overcast,90,2014-02-07 10:55:00
5:15 AM,48.2,41.0,76,30.25,10.0,East,16.1,25.3,N/A,,Overcast,100,2014-02-07 11:15:00
5:35 AM,48.2,41.0,76,30.25,10.0,East,20.7,-,N/A,,Overcast,90,2014-02-07 11:35:00
5:55 AM,48.2,41.0,76,30.26,10.0,East,18.4,25.3,N/A,,Overcast,100,2014-02-07 11:55:00
6:15 AM,48.2,41.0,76,30.25,10.0,East,19.6,-,N/A,,Overcast,100,2014-02-07 12:15:00
6:35 AM,48.2,41.0,76,30.26,-9999.0,East,19.6,25.3,N/A,,Overcast,100,2014-02-07 12:35:00
6:55 AM,48.2,41.0,76,30.26,10.0,ESE,20.7,-,N/A,,Overcast,110,2014-02-07 12:55:00
7:15 AM,48.2,41.0,76,30.27,10.0,ESE,15.0,21.9,N/A,,Overcast,110,2014-02-07 13:15:00
7:35 AM,48.2,42.8,82,30.27,10.0,ESE,19.6,-,N/A,,Overcast,110,2014-02-07 13:35:00
7:55 AM,48.2,41.0,76,30.27,10.0,ESE,17.3,-,N/A,,Overcast,110,2014-02-07 13:55:00
8:15 AM,48.2,42.8,82,30.28,10.0,ESE,17.3,-,N/A,,Overcast,110,2014-02-07 14:15:00
8:35 AM,50.0,42.8,76,30.28,10.0,ESE,18.4,-,N/A,,Overcast,110,2014-02-07 14:35:00
8:55 AM,50.0,42.8,76,30.28,10.0,ESE,17.3,24.2,N/A,,Overcast,110,2014-02-07 14:55:00
9:15 AM,50.0,42.8,76,30.29,10.0,East,18.4,-,N/A,,Overcast,100,2014-02-07 15:15:00
9:35 AM,50.0,42.8,76,30.29,10.0,East,17.3,-,N/A,,Overcast,100,2014-02-07 15:35:00
9:55 AM,50.0,42.8,76,30.29,10.0,ESE,16.1,21.9,N/A,,Overcast,110,2014-02-07 15:55:00
10:15 AM,51.8,42.8,71,30.30,10.0,ESE,16.1,21.9,N/A,,Overcast,110,2014-02-07 16:15:00
10:35 AM,51.8,42.8,71,30.30,10.0,East,16.1,-,N/A,,Overcast,100,2014-02-07 16:35:00
10:55 AM,51.8,42.8,71,30.30,10.0,East,17.3,-,N/A,,Overcast,100,2014-02-07 16:55:00
11:15 AM,51.8,42.8,71,30.28,10.0,East,16.1,-,N/A,,Overcast,100,2014-02-07 17:15:00
11:35 AM,51.8,42.8,71,30.28,10.0,ESE,13.8,21.9,N/A,,Overcast,110,2014-02-07 17:35:00
11:55 AM,51.8,42.8,71,30.27,10.0,East,15.0,23.0,N/A,,Overcast,90,2014-02-07 17:55:00
12:15 PM,51.8,42.8,71,30.25,10.0,East,16.1,-,N/A,,Overcast,100,2014-02-07 18:15:00
12:35 PM,51.8,44.6,76,30.25,10.0,East,16.1,23.0,N/A,,Overcast,90,2014-02-07 18:35:00
12:55 PM,51.8,42.8,71,30.24,10.0,East,15.0,21.9,N/A,,Overcast,80,2014-02-07 18:55:00
1:15 PM,51.8,44.6,76,30.23,10.0,East,16.1,23.0,N/A,,Overcast,90,2014-02-07 19:15:00
1:35 PM,51.8,42.8,71,30.21,10.0,East,18.4,26.5,N/A,,Overcast,100,2014-02-07 19:35:00
1:55 PM,51.8,44.6,76,30.21,10.0,ESE,16.1,21.9,N/A,,Overcast,110,2014-02-07 19:55:00
2:15 PM,51.8,42.8,71,30.20,10.0,ESE,18.4,-,N/A,,Overcast,110,2014-02-07 20:15:00
2:35 PM,51.8,42.8,71,30.20,10.0,ESE,18.4,-,N/A,,Mostly Cloudy,110,2014-02-07 20:35:00
2:55 PM,51.8,44.6,76,30.20,10.0,East,17.3,-,N/A,,Mostly Cloudy,100,2014-02-07 20:55:00
3:15 PM,51.8,44.6,76,30.20,10.0,ESE,16.1,-,N/A,,Mostly Cloudy,110,2014-02-07 21:15:00
3:35 PM,51.8,42.8,71,30.20,10.0,ESE,15.0,-,N/A,,Overcast,110,2014-02-07 21:35:00
3:55 PM,51.8,44.6,76,30.21,10.0,East,13.8,-,N/A,,Mostly Cloudy,90,2014-02-07 21:55:00
4:15 PM,51.8,44.6,76,30.20,10.0,East,15.0,-,N/A,,Mostly Cloudy,100,2014-02-07 22:15:00
4:35 PM,51.8,42.8,71,30.20,10.0,ESE,16.1,-,N/A,,Overcast,110,2014-02-07 22:35:00
4:55 PM,51.8,42.8,71,30.20,10.0,ESE,16.1,-,N/A,,Overcast,120,2014-02-07 22:55:00
5:15 PM,51.8,42.8,71,30.20,10.0,SE,15.0,-,N/A,,Overcast,130,2014-02-07 23:15:00
5:35 PM,53.6,42.8,67,30.20,10.0,ESE,18.4,-,N/A,,Overcast,120,2014-02-07 23:35:00
5:55 PM,53.6,42.8,67,30.19,10.0,ESE,18.4,-,N/A,,Overcast,120,2014-02-07 23:55:00
6:15 PM,53.6,42.8,67,30.19,10.0,ESE,17.3,-,N/A,,Overcast,120,2014-02-08 00:15:00
6:35 PM,53.6,42.8,67,30.20,10.0,ESE,17.3,-,N/A,,Overcast,120,2014-02-08 00:35:00
6:55 PM,55.4,44.6,67,30.20,10.0,ESE,16.1,23.0,N/A,,Overcast,120,2014-02-08 00:55:00
7:15 PM,55.4,44.6,67,30.20,10.0,ESE,18.4,-,N/A,,Overcast,120,2014-02-08 01:15:00
7:35 PM,55.4,44.6,67,30.22,10.0,ESE,13.8,-,N/A,,Overcast,110,2014-02-08 01:35:00
7:55 PM,55.4,44.6,67,30.22,10.0,ESE,16.1,-,N/A,,Overcast,110,2014-02-08 01:55:00
8:15 PM,55.4,44.6,67,30.21,10.0,ESE,17.3,-,N/A,,Overcast,110,2014-02-08 02:15:00
8:35 PM,55.4,44.6,67,30.21,10.0,ESE,11.5,-,N/A,,Overcast,120,2014-02-08 02:35:00
8:55 PM,55.4,44.6,67,30.22,10.0,SE,15.0,-,N/A,,Overcast,130,2014-02-08 02:55:00
9:15 PM,57.2,44.6,63,30.21,10.0,SE,16.1,-,N/A,,Overcast,130,2014-02-08 03:15:00
9:35 PM,57.2,44.6,63,30.19,10.0,SE,13.8,19.6,N/A,,Overcast,130,2014-02-08 03:35:00
9:55 PM,57.2,44.6,63,30.20,10.0,SE,16.1,-,N/A,,Overcast,130,2014-02-08 03:55:00
10:15 PM,57.2,46.4,67,30.19,10.0,SE,15.0,-,N/A,,Overcast,130,2014-02-08 04:15:00
10:35 PM,57.2,46.4,67,30.18,10.0,SE,16.1,-,N/A,,Mostly Cloudy,130,2014-02-08 04:35:00
10:55 PM,57.2,46.4,67,30.18,10.0,SE,13.8,-,N/A,,Overcast,130,2014-02-08 04:55:00
11:15 PM,59.0,46.4,63,30.17,10.0,SE,17.3,-,N/A,,Overcast,140,2014-02-08 05:15:00
11:35 PM,59.0,46.4,63,30.16,10.0,SE,17.3,-,N/A,,Overcast,130,2014-02-08 05:35:00
11:55 PM,59.0,46.4,63,30.15,10.0,ESE,16.1,-,N/A,,Overcast,120,2014-02-08 05:55:00